Regional Weather Roundup
Issued by NWS Charleston, SC

Current Version | Previous Version | Text Only | Print | Product List | Glossary Off
Versions: 1 2 3 4 5 6 7 8 9 10 11 12 13 14 15 16 17 18 19 20 21 22 23 24 25 26 27 28 29 30 31 32 33 34 35 36 37 38 39 40 41 42 43 44 45 46 47 48 49 50

000
ASUS42 KCHS 090727
RWRCHS

REGIONAL WEATHER ROUNDUP
NATIONAL WEATHER SERVICE CHARLESTON SC
200 AM EST FRI DEC 09 2016

NOTE: "FAIR" INDICATES FEW OR NO CLOUDS BELOW 12,000 FEET WITH NO
SIGNIFICANT WEATHER AND/OR OBSTRUCTIONS TO VISIBILITY.

NOT ALL STATIONS ARE QUALITY CONTROLLED. USE DATA WITH CAUTION...
ESPECIALLY DEWPOINT OBSERVATIONS.

SCZ027-030-031-034>040-042>050-090800-
...SOUTHEAST SOUTH CAROLINA...

CITY           SKY/WX    TMP DP  RH WIND       PRES   REMARKS
N CHARLESTON   CLOUDY    44  29  55 N8        30.27S
WATERFRONT PRK   N/A     48  35  60 NW6       30.26R
MOUNT PLEASANT FAIR      46  32  57 N6        30.27S
JOHNS ISLAND   FAIR      45  30  57 NW6       30.26F
PINOPOLIS        N/A     48  32  53 N15       30.20R
MONCKS CORNER  FAIR      45  23  42 N7        30.27S
SUMMERVILLE    FAIR      41  32  70 N3        30.29S
BEAUFORT MCAS  CLOUDY    46  35  65 NW8       30.28F
BEAUFORT ARPT  FAIR      45  32  61 N10       30.27S
HILTON HEAD IS CLOUDY    46  34  61 NW12      30.27F
WALTERBORO     PTSUNNY   41  32  70 NW5       30.29F
ALLENDALE      FAIR      39  32  75 CALM      30.29R

...SOUTHERN MIDLANDS AND PEE DEE...

CITY           SKY/WX    TMP DP  RH WIND       PRES   REMARKS
GEORGETOWN     NOT AVBL
KINGSTREE      FAIR      37  30  75 NW3       30.28S
ORANGEBURG     CLOUDY    40  24  53 NW6       30.29S WCI  36
BARNWELL       NOT AVBL
AIKEN          FAIR      34  30  86 CALM      30.33S
MANNING        FAIR      34  23  64 CALM      30.29S
COLUMBIA       CLOUDY    42  19  39 NW6       30.30R
SUMTER         CLOUDY    39  22  51 NW8       30.26R WCI  33
FLORENCE       PTCLDY    40  26  57 NW6       30.28R WCI  36
MYRTLE BEACH   PTCLDY    43  28  56 NW7       30.28R
N MYRTLE BEACH PTCLDY    40  33  76 NW5       30.25R WCI  37

$$

GAZ063-065-086>088-099>101-113>116-118-119-134>141-150-090800-
...SOUTHEAST GEORGIA...

CITY           SKY/WX    TMP DP  RH WIND       PRES   REMARKS
SAVANNAH ARPT  MOCLDY    45  25  45 NW10      30.29F
HUNTER AAF     MOCLDY    45  31  57 NW9       30.26F
FORT STEWART   CLOUDY    44  26  47 NW6       30.27F
STATESBORO     MOCLDY    41  29  62 N8        30.31S
SYLVANIA       MOSUNNY  N/A N/A N/A NW5       30.32R
CLAXTON        FAIR      42  30  62 NW7       30.31S

...CSRA...CENTRAL AND FAR SOUTHEAST GEORGIA...

CITY           SKY/WX    TMP DP  RH WIND       PRES   REMARKS
THOMSON        PTCLDY    35  31  84 CALM      30.36S
AUGUSTA-BUSH   CLOUDY    41  23  48 NW8       30.31F
AUGUSTA-DANIEL PTCLDY    40  20  44 NW7       30.31S WCI  35
SWAINSBORO     FAIR      34  30  86 NW3       30.33S
VIDALIA        PTCLDY    41  30  65 NW7       30.31F
EASTMAN        FAIR      39  13  35 CALM      30.37R
HAZLEHURST     FAIR      42  23  46 NW5       30.31S
ALMA           MOCLDY    43  23  45 N8        30.30F
WAYCROSS       CLOUDY    47  28  49 N10       30.30F
JESUP          FAIR      45  30  57 N8G16     30.30S
BAXLEY         FAIR      43  28  56 N7        30.30S
BRUNSWICK      MOCLDY    46  32  57 NW10      30.28S
SAINT SIMONS   CLOUDY    48  26  42 N10       30.27S

$$

SCZ027-028-034-036>038-045-046-048>050-GAZ119-141-090800-
...LAKE AND SUPPLEMENTAL COASTAL OBSERVATIONS...

STATION/POSITION TIME  TEMP    WIND        PRES    WAVE   SWELL
                       AIR SEA DIR/SP/G            HT/PER HT/PER/DIR
                 (UTC) (F)     (DEG/KT/KT) (MB)    (FT/S) (FT/S/D)
WINYAH BAY       0630   44     320/  2     1024.0S
LAKE MURRAY      0650   39     330/  2/  8 1025.4R
ACE BASIN NERRS  0645   45     330/  3     1025.0S
FORT PULASKI     0700   46 62  340/ 11/ 13 1025.2
SAPELO ISLAND    0700   48     340/ 13     1025.0

$$

ANZ835-935-AMZ111-154-330-350-352-354-370-450-454-472-090800-
...C-MAN AND BUOY OBSERVATIONS...

STATION/POSITION TIME  TEMP    WIND        PRES    WAVE   SWELL
                       AIR SEA DIR/SP/G            HT/PER HT/PER/DIR
                 (UTC) (F)     (DEG/KT/KT) (MB)    (FT/S) (FT/S/D)
BUOY 41004       0650   56 74  350/ 17/ 23 1022.8R   4/ 6
BUOY 41008       0650   52 63  350/ 21/ 25 1023.4F   5/ 5   2/110/11
FOLLY BEACH CMAN 0700   48     330/  8/ 12 1025.2S
CAPERS NEARSHORE 0608   50 61  360/ 12/ 16 1024.4R
FRIPP NEARSHORE  0708   50 62  350/ 16/ 19 1024.6S


STATION/POSITION TIME  TEMP    WIND        PRES    WAVE   SWELL
                       AIR SEA DIR/SP/G            HT/PER HT/PER/DIR
                 (UTC) (F)     (DEG/KT/KT) (MB)    (FT/S) (FT/S/D)
5E ST. MARYS GA  0700      65                N/A     5/ 5
FRYING PAN BUOY  0710   53 74  340/ 17/ 25 1023.3
BUOY 41025       0650   50 76  340/ 23/ 27 1020.5R   5/ 5   2/ 70/ 9
CAPE LOOKOUT NC  0700   46     320/ 19/ 24 1022.4R
BUOY 41002       0650   66 74  350/ 19/ 23 1017.7R   6/ 6   2/ 30/10
BUOY 41010       NOT AVBL
ST AUGUSTINE FL  0700   54 66  340/ 16/ 18 1025.4R


$$



USA.gov is the U.S. government's official web portal to all federal, state and local government web resources and services.